This is the latest recevied weather packets stored in our database for station/object WB4ZUT. If no packets are shown the sender has not sent any weather packets the latest 10 day(s).
| Time | Temp. | Humidity | Pressure | Rain* | Wind** | Luminosity | Snow |
|---|---|---|---|---|---|---|---|
| 1777466274 | 13.89° C | 99% | 1011.6 hPa | 0 mm | - | 65 W/m² | - |
| 1777465970 | 13.89° C | 99% | 1011.5 hPa | 0 mm | - | 78 W/m² | - |
| 1777465667 | 13.89° C | 99% | 1011.4 hPa | 0 mm | - | 54 W/m² | - |
| 1777465362 | 13.89° C | 99% | 1011.5 hPa | 0 mm | - | 85 W/m² | - |
| 1777465061 | 13.89° C | 99% | 1011.5 hPa | 0 mm | - | 62 W/m² | - |
| 1777464757 | 13.33° C | 99% | 1011.5 hPa | 1.78 mm | - | 47 W/m² | - |
| 1777464453 | 13.33° C | 99% | 1011.5 hPa | 1.78 mm | - | 24 W/m² | - |
| 1777464149 | 13.89° C | 99% | 1012.1 hPa | 1.27 mm | - | 19 W/m² | - |
| 1777463849 | 13.33° C | 99% | 1011.8 hPa | 1.27 mm | - | 12 W/m² | - |
| 1777463544 | 13.89° C | 99% | 1011.7 hPa | 0 mm | - | 15 W/m² | - |
| 1777463240 | 13.89° C | 99% | 1011.9 hPa | 0 mm | - | 7 W/m² | - |
| 1777462936 | 13.89° C | 99% | 1011.8 hPa | 0 mm | - | 10 W/m² | - |
| 1777462632 | 13.89° C | 99% | 1011.7 hPa | 0 mm | - | 15 W/m² | - |
| 1777462328 | 13.89° C | 99% | 1011.3 hPa | 0 mm | - | 10 W/m² | - |
| 1777462024 | 13.89° C | 99% | 1011.2 hPa | 0 mm | - | 6 W/m² | - |
| 1777461721 | 13.89° C | 99% | 1011.2 hPa | 0 mm | - | 2 W/m² | - |
| 1777461416 | 14.44° C | 99% | 1011.1 hPa | 0 mm | - | 2 W/m² | - |
| 1777461112 | 14.44° C | 99% | 1010.7 hPa | 0 mm | - | 1 W/m² | - |
| 1777460808 | 15° C | 99% | 1011 hPa | 0 mm | - | 0 W/m² | - |
| 1777460503 | 15° C | 99% | 1010.8 hPa | 1.78 mm | - | 0 W/m² | - |
| 1777460200 | 15.56° C | 99% | 1010.7 hPa | 3.05 mm | - | 0 W/m² | - |
| 1777459897 | 16.11° C | 99% | 1010.4 hPa | 1.27 mm | - | 0 W/m² | - |
| 1777459594 | 16.11° C | 99% | 1010.4 hPa | 1.78 mm | - | 0 W/m² | - |
| 1777459291 | 16.11° C | 99% | 1010.4 hPa | 1.27 mm | - | 0 W/m² | - |
| 1777458989 | 16.67° C | 99% | 1010.2 hPa | 1.27 mm | - | 0 W/m² | - |
* Rain latest hour (hover to see other rain measurements)
** Current wind speed in m/s (hover to see current wind gust speed)